[[{"header":{"parameterUnit":"m.s-1","parameterCategory":1,"la1":30.2991,"la2":30.254,"lo1":-89.0895,"lo2":-89.0444,"dy":0.0017,"dx":0.0017,"nx":28,"ny":28,"refTime":"2024-05-19T03:00:00:Z","depth":0,"parameterNumber":2,"parameterNumberName":"U-component_of_WINDS"},"data":[0,0,0,0,0,0,0,0,0,0,0,0,0,0,0,0,0,0,0,0,0,0,0,0,0,0,0,0,0,0,0,0,0,0,0,0,0,0,0,0,0,0,0,0,0,0,0,0,0,0,0,0,0,0,0,0,0,0,-0.6571,-0.657,0,-0.6489,-0.6488,-0.6487,-0.6485,-0.6486,-0.6487,-0.6488,-0.6399,-0.6396,-0.6393,0,0,0,0,0,0,0,0,0,0,0,0,0,-0.6721,-0.6719,-0.6571,-0.657,-0.6569,-0.6489,-0.6488,-0.6487,-0.6485,-0.6486,-0.6487,-0.6488,-0.64,-0.6396,-0.6392,0,0,0,0,0,0,0,0,0,0,0,0,0,-0.6649,-0.6718,-0.6572,-0.6559,-0.6557,-0.649,-0.6488,-0.6487,-0.6484,-0.6486,-0.6487,-0.6489,-0.6401,-0.6397,-0.6392,-0.6331,0,0,-0.6377,-0.6374,0,0,0,0,0,0,0,0,-0.6653,-0.6644,-0.6562,-0.6559,-0.6557,-0.6499,-0.6509,-0.6434,-0.6484,-0.6512,-0.6488,-0.6489,-0.6431,-0.6424,-0.6405,-0.6327,-0.6323,-0.6376,-0.6373,-0.6371,-0.637,0,0,0,0,0,0,0,-0.6658,-0.6647,-0.6539,-0.656,-0.6558,-0.6555,-0.6547,-0.6494,-0.6463,-0.6509,-0.6509,-0.6499,-0.643,-0.6409,-0.6402,-0.6322,-0.6376,-0.6372,-0.6369,-0.6367,-0.6187,-0.6186,0,0,0,0,0,0,-0.6667,-0.6652,-0.6541,-0.6536,-0.661,-0.6551,-0.6542,-0.6516,-0.6464,-0.6458,-0.6498,-0.65,-0.6417,-0.6408,-0.6399,-0.6323,-0.6371,-0.6366,-0.6364,-0.6189,-0.6187,-0.6185,0,0,0,0,0,0,-0.667,-0.6657,-0.6545,-0.6594,-0.6579,-0.6547,-0.6518,-0.6513,-0.6493,-0.6456,-0.645,-0.6483,-0.6418,-0.6406,-0.6348,-0.632,-0.6364,-0.636,-0.6191,-0.6188,-0.6186,-0.6171,0,0,0,0,0,0,-0.6674,-0.6658,-0.6636,-0.6593,-0.6577,-0.6496,-0.6516,-0.6511,-0.6485,-0.6486,-0.644,-0.6434,-0.6418,-0.6355,-0.6343,-0.6314,-0.6356,-0.6193,-0.619,-0.6187,-0.6173,-0.6168,-0.6163,0,0,0,0,0,-0.668,-0.6634,-0.6635,-0.6621,-0.6548,-0.6494,-0.6485,-0.6468,-0.6483,-0.6459,-0.6435,-0.6436,-0.6325,-0.6349,-0.6335,-0.6304,-0.6195,-0.6191,-0.6187,-0.6176,-0.6169,-0.6163,0,0,0,0,0,0,-0.6673,-0.6628,-0.6628,-0.6568,-0.6535,-0.6494,-0.6464,-0.6462,-0.6423,-0.6425,-0.6406,-0.6395,-0.6337,-0.6315,-0.6342,-0.6242,-0.6262,-0.6255,-0.6258,-0.6251,-0.6246,-0.6251,-0.6352,0,0,0,0,0,-0.6664,-0.6626,-0.6589,-0.6539,-0.6522,-0.6496,-0.6472,-0.6462,-0.6427,-0.6412,-0.6384,-0.6348,-0.6305,-0.6277,-0.6236,-0.6171,-0.6159,-0.6143,-0.6137,-0.6133,-0.6127,-0.6089,-0.608,-0.6172,-0.6172,-0.6172,0,0,-0.6646,-0.6617,-0.6594,-0.6537,-0.651,-0.6468,-0.6484,-0.644,-0.6408,-0.6405,-0.6348,-0.6326,-0.6284,-0.6222,-0.6193,-0.6202,-0.6099,-0.6128,-0.6125,-0.6121,-0.6084,-0.6075,-0.6067,-0.6169,-0.6169,-0.617,0,0,-0.6592,-0.6567,-0.6522,-0.6495,-0.6455,-0.6438,-0.6427,-0.6386,-0.6371,-0.6314,-0.631,-0.6272,-0.6199,-0.6169,-0.6144,-0.6078,-0.6076,-0.6065,-0.6037,-0.6,-0.5993,-0.5986,-0.5961,-0.5952,-0.6059,-0.6059,-0.6059,0,-0.6574,-0.6513,-0.6499,-0.6454,-0.6428,-0.6425,-0.6378,-0.6353,-0.63,-0.6282,-0.6293,-0.6201,-0.6173,-0.6102,-0.6086,-0.6067,-0.6052,-0.6069,-0.5995,-0.5989,-0.5982,-0.5957,-0.5948,-0.6058,-0.6058,-0.6058,-0.6058,0,-0.6492,-0.6449,-0.6418,-0.6368,-0.6339,-0.6294,-0.6271,-0.6243,-0.6236,-0.6217,-0.6158,-0.6124,-0.6075,-0.6058,-0.6051,-0.5986,-0.5992,-0.6,-0.6019,-0.5973,-0.5949,-0.5939,-0.6056,-0.6057,-0.6057,-0.6057,0,0,-0.6429,-0.6373,-0.6362,-0.6339,-0.6294,-0.626,-0.6214,-0.6167,-0.6142,-0.6107,-0.6066,-0.6004,-0.601,-0.5982,-0.5971,-0.5939,-0.5887,-0.595,-0.5949,-0.5938,-0.5811,-0.5804,-0.5793,-0.5886,-0.5884,-0.5883,-0.5813,0,-0.6368,-0.6288,-0.6274,-0.6202,-0.6162,-0.6158,-0.6117,-0.6084,-0.6065,-0.6027,-0.6005,-0.5961,-0.5974,-0.5957,-0.5925,-0.59,-0.586,-0.5905,-0.5845,-0.5843,-0.5854,-0.5781,-0.5774,-0.571,-0.5804,-0.5803,-0.5802,0,-0.6286,-0.6249,-0.6174,-0.6134,-0.6116,-0.608,-0.6036,-0.6,-0.5962,-0.595,-0.5919,-0.5911,-0.5861,-0.5884,-0.5814,-0.5844,-0.5819,-0.5803,-0.58,-0.5792,-0.5818,-0.5769,-0.569,-0.5679,-0.5787,-0.5788,-0.5789,0,-0.6246,-0.6177,-0.6123,-0.6104,-0.6056,-0.6031,-0.6009,-0.5973,-0.5945,-0.5906,-0.5888,-0.5843,-0.5817,-0.5782,-0.5762,-0.5781,-0.5692,-0.5714,-0.5678,-0.5679,-0.5658,-0.5659,-0.5571,-0.5646,-0.5646,-0.5646,-0.5646,0,-0.6178,-0.6131,-0.6104,-0.607,-0.6018,-0.6002,-0.5949,-0.5928,-0.5896,-0.5856,-0.5851,-0.5814,-0.5791,-0.575,-0.5734,-0.5676,-0.5665,-0.5653,-0.5648,-0.5652,-0.5653,-0.5633,-0.5636,-0.5643,-0.5644,-0.5645,-0.5645,0,-0.6123,-0.6103,-0.6043,-0.6004,-0.5992,-0.5955,-0.592,-0.5886,-0.5868,-0.5818,-0.5805,-0.5775,-0.5726,-0.5703,-0.5643,-0.5632,-0.5566,-0.5566,-0.5579,-0.5577,-0.5542,-0.5545,-0.5437,-0.5421,-0.5508,-0.5507,-0.5507,0,-0.608,-0.6044,-0.6001,-0.5975,-0.5953,-0.5912,-0.5884,-0.5866,-0.5837,-0.5791,-0.5762,-0.5714,-0.5674,-0.5596,-0.5567,-0.5521,-0.5518,-0.5483,-0.5511,-0.5515,-0.5514,-0.5516,-0.5511,-0.5478,-0.5477,-0.5476,-0.5476,0,-0.6005,-0.5997,-0.5958,-0.5915,-0.5882,-0.5847,-0.5813,-0.5791,-0.5768,-0.5735,-0.5686,-0.5655,-0.5594,-0.5545,-0.5496,-0.5472,-0.5469,-0.5468,-0.5456,-0.5458,-0.5466,-0.5459,-0.5563,-0.5469,-0.547,-0.5471,-0.5471,-0.5471,-0.5953,-0.592,-0.5885,-0.5841,-0.5814,-0.5781,-0.5747,-0.5725,-0.5684,-0.5633,-0.5626,-0.5573,-0.5534,-0.5469,-0.5443,-0.54,-0.5408,-0.5392,-0.5388,-0.5384,-0.5381,-0.5475,-0.5391,-0.5392,-0.5392,-0.5392,-0.5392,0,-0.5876,-0.5853,-0.5813,-0.5765,-0.573,-0.5733,-0.5694,-0.5664,-0.5618,-0.5584,-0.5545,-0.5487,-0.544,-0.5408,-0.5359,-0.5331,-0.5328,-0.5318,-0.5319,-0.5313,-0.5378,-0.5391,-0.5321,-0.5321,-0.5321,-0.5321,-0.5322,-0.5322,-0.5831,-0.5776,-0.5763,-0.5694,-0.567,-0.562,-0.5597,-0.5567,-0.5539,-0.5476,-0.5437,-0.5417,-0.5382,-0.5331,-0.5287,-0.5279,-0.526,-0.525,-0.5241,-0.5301,-0.5309,-0.5316,-0.5328,-0.5246,-0.5246,-0.518,-0.5179,-0.5178]},{"header":{"parameterUnit":"m.s-1","parameterCategory":1,"la1":30.2991,"la2":30.254,"lo1":-89.0895,"lo2":-89.0444,"dy":0.0017,"dx":0.0017,"nx":28,"ny":28,"refTime":"2024-05-19T03:00:00:Z","depth":0,"parameterNumber":3,"parameterNumberName":"V-component_of_WINDS"},"data":[0,0,0,0,0,0,0,0,0,0,0,0,0,0,0,0,0,0,0,0,0,0,0,0,0,0,0,0,0,0,0,0,0,0,0,0,0,0,0,0,0,0,0,0,0,0,0,0,0,0,0,0,0,0,0,0,0,0,-0.0554,-0.0554,0,-0.051,-0.0509,-0.0509,-0.0538,-0.054,-0.0541,-0.0543,-0.0498,-0.0495,-0.0493,0,0,0,0,0,0,0,0,0,0,0,0,0,-0.0666,-0.0664,-0.0554,-0.0554,-0.0553,-0.051,-0.0509,-0.0508,-0.0538,-0.054,-0.0542,-0.0543,-0.0499,-0.0496,-0.0493,0,0,0,0,0,0,0,0,0,0,0,0,0,-0.0619,-0.0663,-0.0554,-0.0563,-0.0563,-0.051,-0.0509,-0.0508,-0.0538,-0.054,-0.0542,-0.0544,-0.05,-0.0496,-0.0492,-0.0429,0,0,-0.0481,-0.048,0,0,0,0,0,0,0,0,-0.0622,-0.0615,-0.0562,-0.0562,-0.0562,-0.0532,-0.0532,-0.0482,-0.0537,-0.0547,-0.0543,-0.0545,-0.0508,-0.0503,-0.0491,-0.0427,-0.0425,-0.0481,-0.0479,-0.0477,-0.0476,0,0,0,0,0,0,0,-0.0625,-0.0617,-0.0537,-0.0561,-0.0561,-0.0569,-0.0565,-0.0523,-0.0517,-0.0547,-0.0549,-0.0543,-0.0508,-0.0494,-0.049,-0.0424,-0.0481,-0.0478,-0.0475,-0.0474,-0.0305,-0.0303,0,0,0,0,0,0,-0.0627,-0.0619,-0.0538,-0.0535,-0.0598,-0.0565,-0.056,-0.0539,-0.0517,-0.0516,-0.0541,-0.0545,-0.0499,-0.0494,-0.0488,-0.0411,-0.0477,-0.0474,-0.0471,-0.0307,-0.0304,-0.0302,0,0,0,0,0,0,-0.0629,-0.062,-0.054,-0.0578,-0.0568,-0.0561,-0.0537,-0.0537,-0.0523,-0.0513,-0.0512,-0.0528,-0.0501,-0.0493,-0.0443,-0.041,-0.0472,-0.0469,-0.031,-0.0306,-0.0303,-0.0257,0,0,0,0,0,0,-0.0633,-0.062,-0.0596,-0.0577,-0.0566,-0.0495,-0.0535,-0.0535,-0.0517,-0.0521,-0.05,-0.0499,-0.0502,-0.0448,-0.0439,-0.0406,-0.0466,-0.0313,-0.0308,-0.0304,-0.0261,-0.0252,-0.0244,0,0,0,0,0,-0.0636,-0.0585,-0.0594,-0.0584,-0.0535,-0.0493,-0.0487,-0.049,-0.0514,-0.0489,-0.0483,-0.05,-0.0415,-0.0443,-0.0433,-0.0398,-0.0315,-0.031,-0.0305,-0.0265,-0.0254,-0.0244,0,0,0,0,0,0,-0.06,-0.0583,-0.0593,-0.0534,-0.0514,-0.0498,-0.0467,-0.0479,-0.0453,-0.0457,-0.0464,-0.0459,-0.0406,-0.0398,-0.0428,-0.0335,-0.0369,-0.0362,-0.0342,-0.0331,-0.0323,-0.0326,-0.0463,0,0,0,0,0,-0.0585,-0.0552,-0.0539,-0.0488,-0.0478,-0.0474,-0.0455,-0.046,-0.0441,-0.0433,-0.0423,-0.0403,-0.0372,-0.0352,-0.0323,-0.0261,-0.0256,-0.0232,-0.0223,-0.0217,-0.021,-0.0175,-0.0163,-0.0285,-0.0285,-0.0285,0,0,-0.0554,-0.054,-0.0519,-0.048,-0.0466,-0.0431,-0.0467,-0.0429,-0.0403,-0.0427,-0.0378,-0.037,-0.0349,-0.0292,-0.0267,-0.0283,-0.0175,-0.021,-0.0205,-0.0201,-0.0168,-0.0157,-0.0147,-0.0282,-0.0282,-0.0283,0,0,-0.0479,-0.0466,-0.0421,-0.0406,-0.0384,-0.0382,-0.0371,-0.0353,-0.0348,-0.0299,-0.0316,-0.0286,-0.0233,-0.0217,-0.0202,-0.0121,-0.0135,-0.0112,-0.0067,-0.0033,-0.0024,-0.0015,0.0015,0.0026,-0.0105,-0.0105,-0.0105,0,-0.0443,-0.0391,-0.0397,-0.0357,-0.0339,-0.036,-0.0314,-0.03,-0.0269,-0.0256,-0.0276,-0.0209,-0.0196,-0.0135,-0.0115,-0.0103,-0.009,-0.0113,-0.0025,-0.0016,-0.0008,0.0021,0.0032,-0.0102,-0.0102,-0.0103,-0.0103,0,-0.0347,-0.0311,-0.0278,-0.0247,-0.0226,-0.0183,-0.0183,-0.0161,-0.0168,-0.0163,-0.0113,-0.0099,-0.0067,-0.0053,-0.006,0.0007,-0.0004,-0.0024,-0.0058,0.0006,0.0034,0.0045,-0.0098,-0.0099,-0.01,-0.0101,0,0,-0.0247,-0.022,-0.0207,-0.0193,-0.017,-0.0142,-0.0101,-0.007,-0.005,-0.0029,0.0007,0.0052,0.0034,0.0051,0.0045,0.0075,0.014,0.0051,0.0052,0.0069,0.0217,0.0233,0.0246,0.013,0.0132,0.0134,0.0215,0,-0.0169,-0.0096,-0.01,-0.0032,0.0002,-0.0017,0.0019,0.0037,0.0042,0.0071,0.0075,0.0108,0.0081,0.0091,0.012,0.0126,0.017,0.012,0.0163,0.0165,0.0161,0.026,0.0277,0.0354,0.0226,0.0228,0.0229,0,-0.0068,-0.0042,0.003,0.0048,0.0062,0.0095,0.0124,0.0152,0.0172,0.0173,0.0192,0.0182,0.0224,0.0187,0.0245,0.0211,0.0228,0.0234,0.0237,0.0243,0.0202,0.027,0.0378,0.0391,0.0245,0.0244,0.0243,0,0.0001,0.0053,0.0103,0.0115,0.0138,0.0161,0.0172,0.0189,0.0209,0.0234,0.0247,0.0276,0.0292,0.0315,0.0313,0.0286,0.0372,0.0335,0.0375,0.0375,0.0396,0.0395,0.051,0.0403,0.0403,0.0403,0.0403,0,0.0089,0.0134,0.0134,0.0165,0.0216,0.021,0.0259,0.0267,0.0283,0.0315,0.0299,0.033,0.0325,0.0355,0.0353,0.0402,0.0409,0.0412,0.0411,0.0415,0.0415,0.0427,0.0423,0.0406,0.0405,0.0405,0.0404,0,0.0175,0.0176,0.023,0.0247,0.0252,0.0289,0.0303,0.0333,0.0336,0.0377,0.0386,0.0391,0.0426,0.0426,0.0465,0.0464,0.0525,0.0517,0.0519,0.0518,0.0559,0.0556,0.0688,0.0706,0.0585,0.0586,0.0587,0,0.0232,0.0267,0.0288,0.0308,0.0321,0.0354,0.0374,0.0369,0.0391,0.0416,0.0443,0.0476,0.0503,0.056,0.0567,0.0597,0.0592,0.0636,0.0596,0.0599,0.0595,0.0594,0.0598,0.0644,0.0646,0.0647,0.0648,0,0.0335,0.0334,0.0364,0.0394,0.0419,0.0442,0.0464,0.0481,0.0479,0.0504,0.054,0.0561,0.0602,0.0636,0.0665,0.0675,0.0662,0.066,0.0671,0.0676,0.0676,0.0679,0.0542,0.0657,0.0656,0.0656,0.0655,0.0655,0.041,0.044,0.046,0.0494,0.0509,0.053,0.0559,0.0566,0.0596,0.063,0.0624,0.0665,0.0684,0.0722,0.0735,0.0766,0.0751,0.0767,0.0771,0.0776,0.0781,0.0669,0.0771,0.0771,0.0771,0.077,0.077,0,0.0513,0.0525,0.0556,0.0587,0.0614,0.0598,0.0621,0.0645,0.0681,0.07,0.0727,0.0769,0.0801,0.0811,0.0843,0.0866,0.0861,0.0875,0.0874,0.0877,0.0792,0.078,0.0879,0.0879,0.0879,0.0879,0.0879,0.0879,0.057,0.0621,0.0623,0.0681,0.0692,0.0733,0.0748,0.0767,0.0782,0.083,0.0857,0.0863,0.0878,0.0911,0.0941,0.0942,0.0956,0.0973,0.0973,0.0894,0.0883,0.0873,0.0862,0.0975,0.0976,0.1055,0.1056,0.1056]}]]